Weather Roundup
Issued by NWS Chicago, IL

Home | Current Version | Previous Version | Text Only | Print | Product List | Glossary On
Versions: 1 2 3 4 5 6 7 8 9 10 11 12 13 14 15 16 17 18 19 20 21 22 23 24 25 26 27 28 29 30 31 32 33 34 35 36 37 38 39 40 41 42 43 44 45 46 47 48 49 50
000
NZUS59 KLOT 241510
HRRLOT

CHICAGO AREA WEATHER ROUNDUP
NATIONAL WEATHER SERVICE CHICAGO/ROMEOVILLE IL
1000 AM CDT FRI OCT 24 2014

NOTE: "FAIR" INDICATES FEW OR NO CLOUDS BELOW 12,000 FEET WITH NO
SIGNIFICANT WEATHER AND/OR OBSTRUCTIONS TO VISIBILITY.

* THESE STATIONS ARE NOT UNDER NWS QUALITY CONTROL. THEY ALSO MAY NOT
  REPORT WEATHER SUCH AS PRECIPITATION OR FOG.

ILZ005-006-012>014-019>023-241600-
NORTHEAST ILLINOIS

CITY           SKY/WX    TMP DP  RH WIND       PRES   REMARKS
OHARE          MOSUNNY   55  47  74 VRB3      30.06S
MIDWAY         MOSUNNY   57  48  72 VRB3      30.06F
AURORA         MOSUNNY   55  47  74 CALM      30.08S
LANSING*       PTSUNNY   55  47  76 CALM      30.07F
JOLIET*        PTSUNNY   55  48  78 CALM      30.08R
WAUKEGAN       CLOUDY    51  48  89 VRB5      30.06R FOG
DUPAGE AIRPORT MOSUNNY   57  48  72 CALM      30.07R
WHEELING       SUNNY     57  49  74 W3        30.08S
KANKAKEE*      MOSUNNY   56  49  79 SW5       30.09S
MORRIS*        SUNNY     55  51  87 CALM      30.07S
LEWIS AIRPORT* PTSUNNY   56  48  73 W3        30.08R
NORTHERLY IS     N/A     58  46  64 SW3         N/A
$$

WIZ051-052-058>065-066-070>072-241600-
SOUTHEAST WISCONSIN

CITY           SKY/WX    TMP DP  RH WIND       PRES   REMARKS
MILWAUKEE      CLOUDY    51  48  89 W6        30.06R
KENOSHA*       CLOUDY    50  49  96 W3        30.06S FOG
RACINE*        CLOUDY    52  49  89 SW5       30.07S
BURLINGTON     CLOUDY    48  48  97 SW5       30.05F
WAUKESHA       CLOUDY    46  46 100 W5        30.06S FOG
WEST BEND      CLOUDY    46  45  93 SW3       30.05S
$$

INZ001>003-010>013-019-020-241600-
NORTHWEST INDIANA

CITY           SKY/WX    TMP DP  RH WIND       PRES   REMARKS
GARY*          PTSUNNY   55  46  71 S3        30.07F
MICHIGAN CITY* NOT AVBL
RENSSELAER*    NOT AVBL
VALPARAISO     CLOUDY    54  47  77 SW6       30.08S
$$

LMZ740>746-241600-
SOUTHERN LAKE MICHIGAN

STATION/POSITION TIME  SKY/WX   TEMP WIND        PRES    VSBY
                                AIR  DIR/SP/G
                 (UTC)          (F)  (DEG/KT/KT) (MB)    (MI)
HARRISON CRIB    1400            54  270/  5/  7   N/A
BURNHAM HARBOR   1500            57  200/  4/  7   N/A
CALUMET HARBOR   1500            54  200/  3/  5 1016.7F
BURNS HARBOR     NOT AVBL
MICHIGAN CITY    1500            53  180/  6/  7   N/A
$$

ABBREVIATIONS USED IN REMARKS
   TC - TEMPERATURE IN CELSIUS
  WCI - WIND CHILL INDEX
   HX - HEAT INDEX
  VSB - VISIBILITY
$$



USA.gov is the U.S. government's official web portal to all federal, state and local government web resources and services.